"Timestamp","TZ","WindDir_Mean (deg)","WindSpd_Mean (km/h)","WindSpd_Min (km/h)","WindSpd_Max (km/h)","Temp_Mean (deg)","RH_Mean (%)","MSLP_Mean (hPa)","Rain_Acc (mm)","Rain_Intensity (mm/h)","Hail_Acc (hits/cm2)","Hail_Intensity (hits/cm2hr)","Solar_Mean (W/m2)"
2018/04/25 00:00:00.011,n,48,2.16,2.16,2.52,20.1,67.5,1014.32,0,0,0,0,0.031357
2018/04/25 00:01:00.000,n,41,1.8,0.36,2.88,20.1,67.7,1014.32,0,0,0,0,0.029602
2018/04/25 00:02:00.000,n,81,1.08,0.72,1.44,20.1,67.6,1014.32,0,0,0,0,0.030479
2018/04/25 00:03:00.002,n,265,0.36,0,0.72,20.1,67.7,1014.32,0,0,0,0,0.031357
2018/04/25 00:04:00.000,n,79,1.44,1.08,1.44,20.2,67.8,1014.32,0,0,0,0,0.029602
2018/04/25 00:05:00.000,n,141,1.44,1.08,2.16,20.2,67.6,1014.32,0,0,0,0,0.030479
2018/04/25 00:06:00.010,n,130,2.16,2.16,2.52,20.2,67.5,1014.32,0,0,0,0,0.034828
2018/04/25 00:07:00.007,n,129,1.44,1.44,1.8,20.1,67.6,1014.32,0,0,0,0,0.037422
2018/04/25 00:08:00.004,n,160,0.36,0.36,0.72,20.1,67.7,1014.32,0,0,0,0,0.031357
2018/04/25 00:09:00.002,n,168,1.44,1.08,2.16,20.1,67.9,1014.32,0,0,0,0,0.034828
2018/04/25 00:10:00.000,n,181,1.44,1.08,2.16,20.1,68,1014.32,0,0,0,0,0.032234
2018/04/25 00:11:00.000,n,134,1.44,0.36,2.16,20.1,68.3,1014.32,0,0,0,0,0.028725
2018/04/25 00:12:00.000,n,159,2.16,1.44,2.16,20.1,68.3,1014.32,0,0,0,0,0.033073
2018/04/25 00:13:00.000,n,177,1.8,0.36,3.24,20.1,68.5,1014.32,0,0,0,0,0.033073
2018/04/25 00:14:00.006,n,177,2.88,2.52,3.24,20.1,68.3,1014.32,0,0,0,0,0.033951
2018/04/25 00:15:00.003,n,178,2.88,2.52,2.88,20.1,68.4,1014.32,0,0,0,0,0.034828
2018/04/25 00:16:00.001,n,178,2.52,2.16,2.52,20.1,68.7,1014.32,0,0,0,0,0.035706
2018/04/25 00:17:00.000,n,234,0.72,0.36,1.08,20.1,68.8,1014.32,0,0,0,0,0.030479
2018/04/25 00:18:00.013,n,158,0.72,0.36,1.08,20.1,68.9,1014.32,0,0,0,0,0.039177
2018/04/25 00:19:00.000,n,238,0.72,0.36,0.72,20.1,68.8,1014.32,0,0,0,0,0.032234
2018/04/25 00:20:00.000,n,231,2.16,2.16,2.16,20.1,68.7,1014.32,0,0,0,0,0.031357
2018/04/25 00:21:00.000,n,255,2.52,1.8,2.88,20.1,68.4,1014.32,0,0,0,0,0.036583
2018/04/25 00:22:00.000,n,222,1.08,0.36,1.8,20.1,68.5,1014.32,0,0,0,0,0.032234
2018/04/25 00:23:00.000,n,212,1.08,0.36,2.52,20.1,68.5,1014.32,0,0,0,0,0.033073
2018/04/25 00:24:00.009,n,277,0.72,0.36,1.8,20.1,68.1,1014.32,0,0,0,0,0.035706
2018/04/25 00:25:00.008,n,248,2.88,1.8,3.6,20.1,67.9,1014.32,0,0,0,0,0.031357
2018/04/25 00:26:00.005,n,308,2.16,1.44,3.6,20.1,67.8,1014.32,0,0,0,0,0.033073
2018/04/25 00:27:00.002,n,246,5.04,4.32,5.4,20,67.6,1014.22,0,0,0,0,0.031357
2018/04/25 00:28:00.000,n,252,4.68,3.96,5.4,20,67.3,1014.22,0,0,0,0,0.032234
2018/04/25 00:29:00.000,n,269,4.32,3.96,4.68,20,67.3,1014.22,0,0,0,0,0.034828
2018/04/25 00:30:00.000,n,204,1.44,1.08,1.44,20,67.7,1014.22,0,0,0,0,0.040054
2018/04/25 00:31:00.006,n,214,0.72,0.36,1.8,20,67.7,1014.22,0,0,0,0,0.031357
2018/04/25 00:32:00.004,n,12,2.88,2.16,2.88,20,68.3,1014.22,0,0,0,0,0.033951
2018/04/25 00:33:00.000,n,37,1.44,0.72,1.44,20,68,1014.22,0,0,0,0,0.032234
2018/04/25 00:34:00.000,n,262,1.8,1.08,2.16,20.1,67.8,1014.22,0,0,0,0,0.034828
2018/04/25 00:35:00.011,n,46,1.8,1.08,3.24,20.1,67.8,1014.22,0,0,0,0,0.034828
2018/04/25 00:36:00.008,n,325,3.6,2.88,5.4,20.1,67.4,1014.22,0,0,0,0,0.033073
2018/04/25 00:37:00.000,n,321,0.72,0.36,1.8,20.1,67.5,1014.22,0,0,0,0,0.034828
2018/04/25 00:38:00.002,n,278,1.8,1.44,2.16,20.1,67.5,1014.22,0,0,0,0,0.034828
2018/04/25 00:39:00.000,n,9,0.72,0.36,1.08,20.1,67.7,1014.22,0,0,0,0,0.033951
2018/04/25 00:40:00.000,n,166,0.72,0.36,0.72,20.1,67.7,1014.22,0,0,0,0,0.040932
2018/04/25 00:41:00.000,n,313,1.08,0.36,1.44,20.1,67.6,1014.22,0,0,0,0,0.032234
2018/04/25 00:42:00.007,n,352,0.72,0,1.08,20.1,67.7,1014.22,0,0,0,0,0.034828
2018/04/25 00:43:00.004,n,250,2.16,1.8,2.16,20.1,67.9,1014.22,0,0,0,0,0.033073
2018/04/25 00:44:00.001,n,31,1.8,1.44,2.52,20.1,68.1,1014.22,0,0,0,0,0.034828
2018/04/25 00:45:00.014,n,298,0.72,0.36,1.08,20.1,68.1,1014.22,0,0,0,0,0.033951
2018/04/25 00:46:00.000,n,138,0.72,0.36,0.72,20.1,67.9,1014.22,0,0,0,0,0.035706
2018/04/25 00:47:00.000,n,186,1.08,0.72,1.44,20.1,68,1014.22,0,0,0,0,0.033951
2018/04/25 00:48:00.000,n,188,1.08,0.36,2.16,20.1,68,1014.22,0,0,0,0,0.033951
2018/04/25 00:49:00.000,n,242,1.44,0.72,3.24,20.1,67.6,1014.22,0,0,0,0,0.033073
2018/04/25 00:50:00.001,n,214,3.24,2.88,3.24,20.1,67.4,1014.22,0,0,0,0,0.033073
2018/04/25 00:51:00.007,n,236,2.16,1.44,2.88,20.1,67.2,1014.22,0,0,0,0,0.033951
2018/04/25 00:52:00.011,n,208,1.8,1.08,2.52,20.1,68.6,1014.22,0,0,0,0,0.032234
2018/04/25 00:53:00.000,n,226,1.44,1.08,1.8,20.1,69,1014.22,0,0,0,0,0.036583
2018/04/25 00:54:00.006,n,239,1.8,1.44,2.16,20.1,68.7,1014.22,0,0,0,0,0.033073
2018/04/25 00:55:00.000,n,198,2.16,1.44,2.88,20.1,68.8,1014.22,0,0,0,0,0.033073
2018/04/25 00:56:00.001,n,270,2.52,2.52,2.88,20.1,68.6,1014.12,0,0,0,0,0.040054
2018/04/25 00:57:00.000,n,254,3.96,3.24,4.32,20.1,68.3,1014.12,0,0,0,0,0.035706
2018/04/25 00:58:00.000,n,253,3.96,3.6,4.32,20,67.8,1014.12,0,0,0,0,0.040932
2018/04/25 00:59:00.001,n,252,3.24,3.24,3.6,20,68.2,1014.12,0,0,0,0,0.028725
2018/04/25 01:00:00.006,n,243,3.24,2.88,3.6,20,68.5,1014.12,0,0,0,0,0.040054
2018/04/25 01:01:00.012,n,280,4.68,3.96,5.76,20,69.7,1014.12,0,0,0,0,0.033073
2018/04/25 01:02:00.000,n,246,2.88,2.16,3.6,20,70.1,1014.12,0,0,0,0,0.034828
2018/04/25 01:03:00.005,n,266,2.88,1.44,3.6,20,70.2,1014.12,0,0,0,0,0.032234
2018/04/25 01:04:00.000,n,226,2.88,2.88,3.24,20,70.4,1014.12,0,0,0,0,0.0383
2018/04/25 01:05:00.000,n,178,2.88,2.52,3.24,20,70.6,1014.12,0,0,0,0,0.035706
2018/04/25 01:06:00.004,n,163,1.44,0.72,2.88,19.9,71.2,1014.12,0,0,0,0,0.033073
2018/04/25 01:07:00.000,n,183,1.8,1.08,2.52,19.9,71.6,1014.12,0,0,0,0,0.028725
2018/04/25 01:08:00.000,n,226,2.16,1.8,3.24,19.9,72.1,1014.12,0,0,0,0,0.032234
2018/04/25 01:09:00.005,n,190,2.52,1.44,3.24,19.9,72.3,1014.12,0,0,0,0,0.039177
2018/04/25 01:10:00.011,n,266,5.04,4.32,5.4,19.8,72.5,1014.12,0,0,0,0,0.034828
2018/04/25 01:11:00.000,n,284,2.16,2.16,2.52,19.8,73.1,1014.12,0,0,0,0,0.035706
2018/04/25 01:12:00.005,n,261,5.76,4.32,6.48,19.8,73.2,1014.12,0,0,0,0,0.036583
2018/04/25 01:13:00.000,n,268,7.92,7.2,8.64,19.8,72.8,1014.12,0,0,0,0,0.037422
2018/04/25 01:14:00.001,n,263,8.28,6.12,9,19.7,72.1,1014.12,0,0,0,0,0.037422
2018/04/25 01:15:00.000,n,244,6.48,5.76,7.2,19.6,72.3,1014.12,0,0,0,0,0.036583
2018/04/25 01:16:00.000,n,243,3.96,2.88,5.4,19.6,72.8,1014.12,0,0,0,0,0.032234
2018/04/25 01:17:00.001,n,257,5.76,4.68,6.48,19.5,72.7,1014.12,0,0,0,0,0.036583
2018/04/25 01:18:00.006,n,261,6.84,5.4,7.92,19.5,72.7,1014.12,0,0,0,0,0.036583
2018/04/25 01:19:00.011,n,263,5.04,4.32,6.12,19.5,72.6,1014.12,0,0,0,0,0.032234
2018/04/25 01:20:00.000,n,281,5.04,3.6,6.12,19.4,73.2,1014.12,0,0,0,0,0.036583
2018/04/25 01:21:00.006,n,232,6.12,4.68,7.56,19.4,72.6,1014.12,0,0,0,0,0.030479
2018/04/25 01:22:00.000,n,276,5.04,4.32,6.12,19.4,72.3,1014.12,0,0.2,0,0,0.036583
2018/04/25 01:23:00.002,n,264,6.12,6.12,6.48,19.4,72.2,1014.12,0,0,0,0,0.030479
2018/04/25 01:24:00.000,n,245,6.48,6.12,6.84,19.3,72.3,1014.12,0,0,0,0,0.027847
2018/04/25 01:25:00.000,n,249,4.32,3.6,4.68,19.3,71.7,1014.02,0,0,0,0,0.032234
2018/04/25 01:26:00.003,n,260,5.04,4.68,5.04,19.3,71.9,1014.02,0,0,0,0,0.030479
2018/04/25 01:27:00.008,n,248,4.68,3.96,5.04,19.3,72.3,1014.02,0,0,0,0,0.027008
2018/04/25 01:28:00.000,n,272,6.48,5.4,7.2,19.3,72.6,1014.02,0,0,0,0,0.030479
2018/04/25 01:29:00.002,n,239,4.68,3.96,5.4,19.3,73,1014.02,0,0,0,0,0.028725
2018/04/25 01:30:00.008,n,266,3.96,2.16,5.4,19.3,72.8,1013.92,0,0,0,0,0.030479
2018/04/25 01:31:00.000,n,245,4.68,4.68,5.04,19.3,72.8,1013.92,0,0,0,0,0.027847
2018/04/25 01:32:00.004,n,241,5.4,4.68,6.12,19.2,72.8,1013.92,0,0,0,0,0.027847
2018/04/25 01:33:00.000,n,254,6.48,6.12,6.84,19.2,73.1,1013.92,0,0,0,0,0.024376
2018/04/25 01:34:00.000,n,252,5.04,4.68,5.4,19.2,73.5,1013.92,0,0,0,0,0.027847
2018/04/25 01:35:00.003,n,209,2.52,1.8,2.88,19.2,74,1014.02,0,0,0,0,0.024376
2018/04/25 01:36:00.008,n,246,3.96,3.24,4.32,19.2,74.2,1014.02,0,0,0,0,0.024376
2018/04/25 01:37:00.000,n,176,3.6,3.24,3.96,19.2,74.7,1014.02,0,0,0,0,0.026131
2018/04/25 01:38:00.002,n,291,3.6,3.24,4.32,19.2,75,1014.02,0,0,0,0,0.023499
2018/04/25 01:39:00.008,n,263,8.64,6.84,9.72,19.2,74.9,1014.02,0,0,0,0,0.022659
2018/04/25 01:40:00.000,n,250,7.92,7.2,9,19.1,74.5,1013.92,0,0,0,0,0.023499
2018/04/25 01:41:00.002,n,261,5.76,4.32,7.92,19.1,74.3,1013.92,0,0,0,0,0.01915
2018/04/25 01:42:00.000,n,262,8.28,6.84,9,19,74.3,1013.92,0,0,0,0,0.021782
2018/04/25 01:43:00.000,n,257,6.48,5.76,7.92,19,74.6,1013.92,0,0,0,0,0.022659
2018/04/25 01:44:00.002,n,232,4.68,4.32,4.68,19,74.7,1013.92,0,0,0,0,0.022659
2018/04/25 01:45:00.008,n,245,5.76,4.68,7.2,18.9,74.9,1013.92,0,0,0,0,0.031319
2018/04/25 01:46:00.000,n,257,5.04,4.32,5.76,18.9,74.9,1013.92,0,0,0,0,0.029564
2018/04/25 01:47:00.004,n,258,6.84,6.12,7.56,18.9,75,1013.92,0,0,0,0,0.027847
2018/04/25 01:48:00.009,n,268,6.12,5.76,6.84,18.9,75.1,1013.92,0,0,0,0,0.031319
2018/04/25 01:49:00.000,n,253,4.32,3.6,5.04,18.9,75.1,1013.92,0,0,0,0,0.027847
2018/04/25 01:50:00.004,n,253,7.2,5.76,7.56,18.8,75.1,1013.92,0,0,0,0,0.026093
2018/04/25 01:51:00.000,n,248,7.92,6.84,9,18.8,75.2,1013.92,0,0,0,0,0.030441
2018/04/25 01:52:00.000,n,263,6.48,5.76,6.48,18.8,75.3,1013.92,0,0,0,0,0.028725
2018/04/25 01:53:00.004,n,254,6.84,6.48,7.92,18.8,75.4,1013.92,0,0,0,0,0.030441
2018/04/25 01:54:00.009,n,250,5.76,4.68,6.48,18.8,75.5,1013.92,0,0,0,0,0.02697
2018/04/25 01:55:00.000,n,268,6.48,6.12,7.2,18.8,75.6,1013.92,0,0,0,0,0.031319
2018/04/25 01:56:00.002,n,268,6.84,6.12,7.2,18.8,75.7,1013.92,0,0,0,0,0.032196
2018/04/25 01:57:00.008,n,247,6.12,5.76,6.48,18.8,76,1013.92,0,0,0,0,0.036583
2018/04/25 01:58:00.000,n,256,7.2,6.12,7.92,18.8,76.1,1013.82,0,0,0,0,0.031357
2018/04/25 01:59:00.000,n,276,10.8,9.72,12.24,18.8,76.2,1013.82,0,0,0,0,0.035706
2018/04/25 02:00:00.003,n,266,9.72,7.92,11.52,18.7,76.3,1013.82,0,0,0,0,0.030479
2018/04/25 02:01:00.000,n,276,4.68,2.52,7.56,18.7,76.7,1013.82,0,0,0,0,0.02964
2018/04/25 02:02:00.000,n,235,4.32,3.6,4.68,18.7,76.6,1013.82,0,0,0,0,0.033989
2018/04/25 02:03:00.003,n,253,7.56,6.84,8.28,18.7,76.2,1013.82,0,0,0,0,0.030479
2018/04/25 02:04:00.008,n,276,5.76,5.4,5.76,18.7,76.3,1013.82,0,0,0,0,0.02964
2018/04/25 02:05:00.013,n,260,5.04,4.68,6.12,18.7,76.4,1013.82,0,0,0,0,0.031357
2018/04/25 02:06:00.001,n,238,2.88,2.16,2.88,18.7,76.5,1013.82,0,0,0,0,0.02964
2018/04/25 02:07:00.000,n,248,3.24,2.52,4.68,18.7,76.5,1013.82,0,0,0,0,0.02964
2018/04/25 02:08:00.000,n,247,9,7.92,9.72,18.6,76.3,1013.72,0,0,0,0,0.025291
2018/04/25 02:09:00.001,n,262,8.28,6.84,9.36,18.6,76.4,1013.72,0,0,0,0,0.028763
2018/04/25 02:10:00.007,n,283,5.4,3.6,6.48,18.6,76.8,1013.72,0,0,0,0,0.031357
2018/04/25 02:11:00.000,n,247,10.8,10.440002,11.52,18.6,76.7,1013.72,0,0,0,0,0.028763
2018/04/25 02:12:00.001,n,231,6.48,5.4,7.2,18.6,77,1013.72,0,0,0,0,0.026131
2018/04/25 02:13:00.006,n,219,5.04,4.68,5.76,18.6,77.2,1013.72,0,0,0,0,0.027847
2018/04/25 02:14:00.013,n,256,5.4,3.6,6.84,18.6,77.4,1013.72,0,0,0,0,0.030479
2018/04/25 02:15:00.001,n,248,7.56,7.2,8.28,18.6,77.4,1013.72,0,0,0,0,0.027008
2018/04/25 02:16:00.000,n,250,6.84,6.48,7.2,18.6,77.7,1013.72,0,0,0,0,0.031357
2018/04/25 02:17:00.000,n,248,7.92,5.76,10.08,18.6,77.3,1013.72,0,0,0,0,0.030479
2018/04/25 02:18:00.002,n,256,6.48,5.76,6.84,18.5,77.4,1013.72,0,0,0,0,0.030479
2018/04/25 02:19:00.000,n,238,3.24,2.52,4.32,18.5,77.8,1013.72,0,0,0,0,0.027008
2018/04/25 02:20:00.000,n,275,4.68,3.96,5.04,18.5,77.5,1013.72,0,0,0,0,0.027847
2018/04/25 02:21:00.003,n,253,5.4,4.32,6.84,18.5,77.5,1013.72,0,0,0,0,0.028763
2018/04/25 02:22:00.008,n,266,6.12,5.04,7.56,18.5,77.4,1013.72,0,0,0,0,0.027008
2018/04/25 02:23:00.013,n,265,6.84,6.48,7.56,18.5,77.4,1013.72,0,0,0,0,0.026131
2018/04/25 02:24:00.001,n,272,6.12,5.4,6.84,18.4,77.4,1013.62,0,0,0,0,0.025291
2018/04/25 02:25:00.000,n,256,8.28,7.92,9,18.4,77.5,1013.62,0,0,0,0,0.027008
2018/04/25 02:26:00.000,n,272,9,6.84,10.440002,18.4,77.8,1013.62,0,0,0,0,0.031357
2018/04/25 02:27:00.002,n,253,6.84,5.76,7.92,18.4,78,1013.62,0,0,0,0,0.02964
2018/04/25 02:28:00.006,n,258,8.64,7.92,9,18.4,77.8,1013.62,0,0,0,0,0.024414
2018/04/25 02:29:00.000,n,267,9.72,6.84,11.88,18.4,77.3,1013.62,0,0,0,0,0.024414
2018/04/25 02:30:00.002,n,270,10.440002,9.72,11.52,18.4,77.6,1013.62,0,0,0,0,0.026131
2018/04/25 02:31:00.007,n,267,8.64,7.56,9.72,18.4,78,1013.62,0,0,0,0,0.024414
2018/04/25 02:32:00.012,n,270,7.56,7.2,9,18.4,77.5,1013.62,0,0,0,0,0.024414
2018/04/25 02:33:00.017,n,258,8.28,5.76,9.72,18.4,77.4,1013.62,0,0,0,0,0.027847
2018/04/25 02:34:00.000,n,274,9,7.92,10.08,18.3,77.4,1013.52,0,0,0,0,0.02964
2018/04/25 02:35:00.000,n,242,10.8,9,11.52,18.3,77.6,1013.52,0,0,0,0,0.030479
2018/04/25 02:36:00.000,n,255,7.2,5.4,9.36,18.3,77.6,1013.52,0,0,0,0,0.027847
2018/04/25 02:37:00.006,n,260,6.12,2.88,8.64,18.3,77.7,1013.52,0,0,0,0,0.022659
2018/04/25 02:38:00.000,n,249,6.48,5.76,6.84,18.3,77.6,1013.52,0,0,0,0,0.023499
2018/04/25 02:39:00.001,n,284,7.2,3.6,10.08,18.3,78.6,1013.52,0,0,0,0,0.023499
2018/04/25 02:40:00.007,n,263,6.84,5.76,8.64,18.4,78.6,1013.52,0,0,0,0,0.022659
2018/04/25 02:41:00.013,n,255,6.84,5.4,8.64,18.4,78.7,1013.52,0,0,0,0,0.019188
2018/04/25 02:42:00.001,n,252,4.32,2.52,6.48,18.4,78.9,1013.52,0,0,0,0,0.023499
2018/04/25 02:43:00.000,n,249,7.2,6.48,7.56,18.4,78.2,1013.52,0,0,0,0,0.021782
2018/04/25 02:44:00.000,n,235,5.76,5.04,6.12,18.3,78.2,1013.52,0,0,0,0,0.020065
2018/04/25 02:45:00.000,n,260,6.48,5.4,6.84,18.3,78.3,1013.42,0,0,0,0,0.034828
2018/04/25 02:46:00.006,n,301,2.16,0.36,3.6,18.3,78.4,1013.42,0,0,0,0,0.029602
2018/04/25 02:47:00.000,n,245,3.24,2.88,3.6,18.3,78.4,1013.42,0,0,0,0,0.027885
2018/04/25 02:48:00.000,n,190,0.36,0.36,0.72,18.3,78.6,1013.42,0,0,0,0,0.034828
2018/04/25 02:49:00.007,n,106,1.08,0.36,1.44,18.3,78.6,1013.42,0,0,0,0,0.029602
2018/04/25 02:50:00.012,n,196,1.44,1.44,1.8,18.3,78.8,1013.42,0,0,0,0,0.031357
2018/04/25 02:51:00.000,n,179,3.24,3.24,3.6,18.3,78.9,1013.42,0,0,0,0,0.027885
2018/04/25 02:52:00.000,n,124,0.72,0.72,1.44,18.3,79.1,1013.42,0,0,0,0,0.029602
2018/04/25 02:53:00.000,n,186,5.04,4.68,6.12,18.3,79,1013.42,0,0,0,0,0.031357
2018/04/25 02:54:00.000,n,94,2.16,1.8,2.52,18.3,79.1,1013.42,0,0,0,0,0.029602
2018/04/25 02:55:00.005,n,184,2.52,2.16,2.88,18.3,79,1013.42,0,0,0,0,0.032234
2018/04/25 02:56:00.000,n,139,3.6,2.88,3.96,18.2,79,1013.42,0,0,0,0,0.028725
2018/04/25 02:57:00.000,n,152,2.16,1.44,3.24,18.2,79.1,1013.42,0,0,0,0,0.027885
2018/04/25 02:58:00.005,n,183,6.84,6.12,7.56,18.2,79.2,1013.42,0,0,0,0,0.025253
2018/04/25 02:59:00.011,n,209,6.12,5.76,6.48,18.2,78.9,1013.42,0,0,0,0,0.023499
2018/04/25 03:00:00.016,n,171,4.68,3.6,4.68,18.2,79.3,1013.42,0,0,0,0,0.025253
2018/04/25 03:01:00.000,n,164,4.32,4.32,5.04,18.2,79.7,1013.42,0,0,0,0,0.024376
2018/04/25 03:02:00.000,n,168,6.84,6.48,7.2,18.2,79.5,1013.42,0,0,0,0,0.028725
2018/04/25 03:03:00.000,n,144,6.48,4.32,7.92,18.2,79.6,1013.42,0,0,0,0,0.026131
2018/04/25 03:04:00.004,n,164,5.4,4.32,6.48,18.2,79.6,1013.42,0,0,0,0,0.024376
2018/04/25 03:05:00.000,n,145,8.64,8.28,9,18.1,79.3,1013.42,0,0,0,0,0.023499
2018/04/25 03:06:00.000,n,188,3.24,2.52,4.68,18.1,79.7,1013.42,0,0,0,0,0.021782
2018/04/25 03:07:00.005,n,168,2.52,1.44,2.88,18.1,79.8,1013.42,0,0,0,0,0.025253
2018/04/25 03:08:00.012,n,161,6.84,6.48,7.2,18.1,79.9,1013.42,0,0,0,0,0.024376
2018/04/25 03:09:00.016,n,149,5.4,5.4,6.12,18.1,80,1013.42,0,0,0,0,0.024376
2018/04/25 03:10:00.000,n,185,2.88,2.52,3.24,18.1,80.1,1013.42,0,0,0,0,0.020027
2018/04/25 03:11:00.000,n,189,5.4,5.4,5.76,18.1,79.9,1013.32,0,0,0,0,0.023499
2018/04/25 03:12:00.000,n,207,3.24,2.16,3.96,18.1,79.9,1013.42,0,0,0,0,0.020027
2018/04/25 03:13:00.005,n,174,7.56,6.84,7.92,18.1,80,1013.32,0,0,0,0,0.023499
2018/04/25 03:14:00.000,n,189,3.24,2.52,3.6,18.1,80.1,1013.42,0,0,0,0,0.024376
2018/04/25 03:15:00.000,n,173,8.64,7.2,9,18.1,79.6,1013.42,0,0,0,0,0.022659
2018/04/25 03:16:00.004,n,230,3.96,3.24,5.04,18.1,79.7,1013.42,0,0,0,0,0.02964
2018/04/25 03:17:00.009,n,267,4.68,3.96,5.4,18.1,79.9,1013.42,0,0,0,0,0.032234
2018/04/25 03:18:00.016,n,132,4.32,1.08,6.12,18.1,79.9,1013.42,0,0,0,0,0.031357
2018/04/25 03:19:00.000,n,191,1.44,1.08,2.16,18.1,79.9,1013.52,0,0,0,0,0.032234
2018/04/25 03:20:00.000,n,176,3.24,2.52,4.32,18.1,80,1013.52,0,0,0,0,0.033112
2018/04/25 03:21:00.000,n,131,3.24,2.52,4.68,18.1,80.1,1013.52,0,0,0,0,0.031357
2018/04/25 03:22:00.005,n,187,6.84,5.76,7.56,18.1,80.1,1013.52,0,0,0,0,0.035706
2018/04/25 03:23:00.000,n,268,8.64,8.28,9.36,18.1,79.9,1013.52,0,0,0,0,0.033989
2018/04/25 03:24:00.000,n,196,3.96,2.88,5.76,18.1,80,1013.52,0,0,0,0,0.030479
2018/04/25 03:25:00.005,n,226,3.6,3.24,4.68,18.1,80.2,1013.52,0,0,0,0,0.036583
2018/04/25 03:26:00.010,n,177,6.12,5.04,6.84,18.1,80.1,1013.52,0,0,0,0,0.038338
2018/04/25 03:27:00.015,n,235,5.04,4.32,5.4,18.1,80.1,1013.52,0,0,0,0,0.034866
2018/04/25 03:28:00.000,n,169,5.04,1.44,9.36,18.1,80.2,1013.52,0,0,0,0,0.035706
2018/04/25 03:29:00.000,n,267,4.68,1.8,6.12,18.1,80.3,1013.52,0,0,0,0,0.033989
2018/04/25 03:30:00.000,n,230,3.96,3.24,4.32,18.1,80.3,1013.52,0,0,0,0,0.036583
2018/04/25 03:31:00.003,n,218,2.52,1.44,3.6,18.1,80.3,1013.52,0,0,0,0,0.03746
2018/04/25 03:32:00.008,n,258,2.88,1.8,3.6,18.1,80.4,1013.52,0,0,0,0,0.036583
2018/04/25 03:33:00.000,n,203,1.8,0.36,3.6,18.1,80.8,1013.52,0,0,0,0,0.036583
2018/04/25 03:34:00.002,n,249,1.8,0.72,2.52,18.1,80.7,1013.62,0,0,0,0,0.035706
2018/04/25 03:35:00.009,n,249,4.32,3.96,5.04,18.1,80.7,1013.62,0,0,0,0,0.035706
2018/04/25 03:36:00.014,n,243,3.96,1.44,4.68,18.1,80.9,1013.62,0,0,0,0,0.032234
2018/04/25 03:37:00.000,n,254,9,8.64,9.36,18.1,80.8,1013.62,0.01,0.1,0,0,0.032234
2018/04/25 03:38:00.000,n,223,3.6,1.44,4.32,18.1,81.2,1013.62,0.01,0,0,0,0.033112
2018/04/25 03:39:00.000,n,255,6.84,4.68,10.440002,18.1,81.4,1013.62,0.03,1.1,0,0,0.028763
2018/04/25 03:40:00.006,n,202,3.24,2.88,4.32,18.1,81.7,1013.62,0.03,0,0,0,0.031357
2018/04/25 03:41:00.004,n,267,4.32,3.96,5.4,18.1,82,1013.62,0.03,0,0,0,0.030479
2018/04/25 03:42:00.001,n,258,3.96,2.88,5.04,18.1,82.3,1013.62,0.03,0.1,0,0,0.031357
2018/04/25 03:43:00.000,n,302,2.52,1.08,5.04,18.1,82.4,1013.62,0.03,0,0,0,0.031357
2018/04/25 03:44:00.000,n,232,2.52,1.44,4.32,18.1,82.5,1013.62,0.05,1,0,0,0.032234
2018/04/25 03:45:00.015,n,292,5.4,3.6,6.48,18,82.7,1013.62,0.05,0,0,0,0.033112
2018/04/25 03:46:00.000,n,265,4.68,4.32,5.04,18,82.9,1013.62,0.05,0,0,0,0.030479
2018/04/25 03:47:00.000,n,206,4.32,3.24,5.04,18,83.3,1013.62,0.05,0.1,0,0,0.028763
2018/04/25 03:48:00.000,n,245,3.24,2.88,3.6,18,83.5,1013.62,0.05,0,0,0,0.033112
2018/04/25 03:49:00.000,n,173,4.32,2.52,5.4,18,83.6,1013.62,0.05,0,0,0,0.033112
2018/04/25 03:50:00.007,n,148,1.8,1.44,2.52,18,83.7,1013.62,0.05,0,0,0,0.03746
2018/04/25 03:51:00.004,n,210,1.44,0.72,2.16,18,83.9,1013.62,0.05,0,0,0,0.02964
2018/04/25 03:52:00.001,n,160,4.68,3.96,5.4,17.9,83.9,1013.62,0.05,0,0,0,0.033989
2018/04/25 03:53:00.000,n,218,3.96,2.88,5.04,17.9,84.3,1013.62,0.05,0,0,0,0.031357
2018/04/25 03:54:00.014,n,93,0.72,0.36,1.08,17.9,84.4,1013.62,0.05,0,0,0,0.033112
2018/04/25 03:55:00.000,n,185,5.76,4.32,6.12,17.9,84.4,1013.62,0.05,0,0,0,0.027008
2018/04/25 03:56:00.000,n,250,4.32,3.24,5.4,17.8,84.7,1013.62,0.05,0,0,0,0.028763
2018/04/25 03:57:00.000,n,205,1.8,1.44,2.52,17.8,84.9,1013.62,0.05,0,0,0,0.024414
2018/04/25 03:58:00.004,n,261,3.96,3.6,4.32,17.8,85.1,1013.62,0.05,0,0,0,0.031357
2018/04/25 03:59:00.001,n,258,2.52,1.8,2.88,17.8,85.1,1013.62,0.05,0,0,0,0.027008
2018/04/25 04:00:00.000,n,240,4.32,2.88,6.12,17.8,85,1013.72,0.06,0,0,0,0.030479
2018/04/25 04:01:00.013,n,228,6.12,4.68,7.2,17.8,85,1013.72,0.06,0.2,0,0,0.028763
2018/04/25 04:02:00.010,n,211,2.16,0.72,3.96,17.8,85.3,1013.62,0.06,0.1,0,0,0.028763
2018/04/25 04:03:00.008,n,244,4.68,4.32,5.4,17.8,85.3,1013.72,0.06,0.2,0,0,0.031357
2018/04/25 04:04:00.000,n,230,5.4,4.68,5.4,17.7,85.2,1013.72,0.08,1.1,0,0,0.024414
2018/04/25 04:05:00.000,n,296,1.8,1.44,2.52,17.7,85.5,1013.62,0.08,0,0,0,0.028763
2018/04/25 04:06:00.002,n,265,2.16,1.8,2.88,17.7,85.5,1013.72,0.09,0,0,0,0.028763
2018/04/25 04:07:00.000,n,249,5.04,3.96,5.76,17.7,85.6,1013.72,0.09,0.1,0,0,0.030479
2018/04/25 04:08:00.000,n,260,3.24,3.24,3.6,17.6,85.9,1013.72,0.09,0,0,0,0.027885
2018/04/25 04:09:00.000,n,260,2.52,1.8,2.88,17.6,85.8,1013.72,0.1,0.3,0,0,0.028763
2018/04/25 04:10:00.011,n,282,1.44,0.72,2.52,17.6,85.8,1013.62,0.1,0.1,0,0,0.027008
2018/04/25 04:11:00.009,n,219,2.16,1.8,3.24,17.6,85.9,1013.72,0.1,0,0,0,0.027008
2018/04/25 04:12:00.006,n,188,3.6,2.88,5.04,17.6,85.9,1013.72,0.1,0,0,0,0.026131
2018/04/25 04:13:00.000,n,243,2.16,1.44,2.88,17.5,85.9,1013.72,0.1,0,0,0,0.027885
2018/04/25 04:14:00.001,n,229,1.8,1.08,2.88,17.5,86,1013.72,0.1,0,0,0,0.026131
2018/04/25 04:15:00.000,n,226,3.96,3.24,4.32,17.5,86.2,1013.72,0.1,0,0,0,0.017433
2018/04/25 04:16:00.000,n,244,5.4,3.96,6.84,17.5,86.2,1013.72,0.1,0,0,0,0.026131
2018/04/25 04:17:00.010,n,250,7.2,6.84,7.56,17.5,86.2,1013.72,0.1,0,0,0,0.027008
2018/04/25 04:18:00.006,n,275,2.52,0.36,4.68,17.5,86.2,1013.62,0.1,0,0,0,0.027885
2018/04/25 04:19:00.003,n,273,4.32,2.88,5.76,17.5,86.5,1013.62,0.1,0,0,0,0.021782
2018/04/25 04:20:00.001,n,253,3.96,3.24,4.68,17.5,86.1,1013.62,0.1,0,0,0,0.034828
2018/04/25 04:21:00.012,n,269,4.32,3.96,4.68,17.4,86.1,1013.62,0.1,0,0,0,0.03746
2018/04/25 04:22:00.000,n,251,6.84,6.12,7.92,17.4,86,1013.62,0.1,0,0,0,0.036545
2018/04/25 04:23:00.000,n,256,5.76,5.4,5.76,17.4,86.2,1013.62,0.1,0,0,0,0.036545
2018/04/25 04:24:00.004,n,231,5.04,3.96,5.04,17.4,86.5,1013.72,0.1,0,0,0,0.030479
2018/04/25 04:25:00.001,n,228,2.52,2.52,2.88,17.4,86.7,1013.72,0.1,0,0,0,0.031319
2018/04/25 04:26:00.000,n,178,1.44,0.72,2.88,17.4,86.8,1013.72,0.1,0,0,0,0.032196
2018/04/25 04:27:00.000,n,126,5.4,3.6,7.2,17.4,86.9,1013.72,0.1,0,0,0,0.033951
2018/04/25 04:28:00.011,n,61,0.72,0.36,1.08,17.5,86.8,1013.72,0.1,0,0,0,0.032196
2018/04/25 04:29:00.008,n,253,3.96,3.6,4.32,17.5,86.9,1013.72,0.1,0,0,0,0.033073
2018/04/25 04:30:00.005,n,222,2.16,1.8,2.16,17.5,86.9,1013.72,0.1,0,0,0,0.033951
2018/04/25 04:31:00.000,n,78,0.72,0.36,1.08,17.5,87,1013.72,0.1,0,0,0,0.033073
2018/04/25 04:32:00.000,n,215,4.68,4.32,5.04,17.5,86.7,1013.72,0.1,0,0,0,0.027885
2018/04/25 04:33:00.000,n,233,4.68,4.32,5.04,17.5,86.5,1013.72,0.1,0,0,0,0.026093
2018/04/25 04:34:00.000,n,232,4.32,3.96,4.68,17.5,86.8,1013.72,0.1,0,0,0,0.028725
2018/04/25 04:35:00.009,n,264,6.12,5.04,6.48,17.5,86.6,1013.72,0.1,0,0,0,0.027885
2018/04/25 04:36:00.005,n,252,5.04,4.68,5.4,17.4,86.6,1013.72,0.1,0,0,0,0.030479
2018/04/25 04:37:00.003,n,218,1.8,1.08,2.52,17.4,86.6,1013.72,0.1,0,0,0,0.029602
2018/04/25 04:38:00.000,n,261,4.68,3.6,5.04,17.4,86.6,1013.62,0.1,0,0,0,0.026093
2018/04/25 04:39:00.014,n,268,4.68,3.96,5.04,17.4,86.9,1013.62,0.1,0,0,0,0.023499
2018/04/25 04:40:00.000,n,303,2.88,2.16,3.24,17.4,87.2,1013.62,0.1,0,0,0,0.026093
2018/04/25 04:41:00.000,n,267,4.32,3.96,4.68,17.5,87.2,1013.62,0.1,0,0,0,0.029602
2018/04/25 04:42:00.000,n,259,3.24,0.72,4.68,17.5,87.1,1013.62,0.1,0,0,0,0.02697
2018/04/25 04:43:00.004,n,354,1.08,0.72,2.16,17.5,87.2,1013.62,0.1,0,0,0,0.028725
2018/04/25 04:44:00.001,n,231,2.52,2.16,3.24,17.6,87.1,1013.62,0.1,0,0,0,0.023499
2018/04/25 04:45:00.000,n,188,1.08,0.72,1.08,17.6,87.1,1013.62,0.1,0,0,0,0.026093
2018/04/25 04:46:00.013,n,270,2.16,0.72,3.96,17.6,87.3,1013.52,0.1,0,0,0,0.028725
2018/04/25 04:47:00.010,n,180,2.16,1.44,2.88,17.6,87.2,1013.52,0.1,0,0,0,0.024376
2018/04/25 04:48:00.007,n,352,2.88,2.52,3.24,17.6,87.2,1013.52,0.1,0,0,0,0.023499
2018/04/25 04:49:00.000,n,47,1.08,0.72,1.44,17.6,87.1,1013.52,0.1,0,0,0,0.02697
2018/04/25 04:50:00.004,n,358,1.8,0,3.6,17.6,87,1013.52,0.1,0,0,0,0.02697
2018/04/25 04:51:00.000,n,82,2.16,0.72,2.88,17.6,86.9,1013.52,0.1,0,0,0,0.024376
2018/04/25 04:52:00.000,n,246,2.52,2.16,3.24,17.6,86.8,1013.52,0.1,0,0,0,0.024376
2018/04/25 04:53:00.000,n,189,2.16,2.16,2.88,17.5,87,1013.52,0.1,0,0,0,0.023499